Date String (YYYY-MM-DD hh:mm:ss) UTC,Instrument flags,absolute air pressure of the measurement (hPa),sample flow rate (lpm),inlet stack bypass flow (lpm),air temperature of the measurement (°C),ambient temperature measured by the external sensor (°C),aerosol sample conditioner tube jacket temperature (°C),OPC LED temperature (°C),internal box temperature (°C),relative humidity of the measurement (%),span deviation,mass concentration of particles derived from Lorenz-Mie calculation of OPC scattering (μg/m³),mass concentration of particles derived from Lorenz-Mie calculation of OPC scattering (μg/m³),mass concentration of particles derived from Lorenz-Mie calculation of OPC scattering (μg/m³)
DateTimeUTC,F1_M11,P_M11,Q1_M11,Q2_M11,T1_M11,T2_M11,T3_M11,T4_M11,T5_M11,U1_M11,ZSPAN_M11,X2_M11,X0_M11,X1_M11
2023-12-02 21:00:00,SystemResetWarning,0821.6,5.00,000.00,019.1,018.4,000.0,027.4,020.3,8.9,0000.0,0000.72,0001.59,0000.47
2023-12-02 21:01:00,SystemResetWarning,0821.6,5.00,000.00,019.1,018.4,000.0,027.4,020.3,9.3,0000.0,0000.73,0001.61,0000.47
2023-12-02 21:02:00,SystemResetWarning,0821.7,5.00,000.00,019.1,018.4,000.0,027.4,020.4,9.2,0000.0,0000.77,0002.16,0000.48
2023-12-02 21:03:00,SystemResetWarning,0821.7,5.00,000.00,019.1,018.4,000.0,027.4,020.4,9.1,0000.0,0000.77,0002.55,0000.48
2023-12-02 21:04:00,SystemResetWarning,0821.9,5.00,000.00,019.1,018.5,000.0,027.4,020.4,9.1,0000.0,0000.79,0002.55,0000.49
2023-12-02 21:05:00,SystemResetWarning,0822.0,5.00,000.00,019.1,018.5,000.0,027.4,020.4,9.0,0000.0,0000.80,0002.70,0000.50
2023-12-02 21:06:00,SystemResetWarning,0821.8,5.00,000.00,019.2,018.5,000.0,027.4,020.4,9.0,0000.0,0000.81,0002.71,0000.49
2023-12-02 21:07:00,SystemResetWarning,0822.0,5.00,000.00,019.2,018.5,000.0,027.4,020.4,9.0,0000.0,0000.84,0002.63,0000.49
2023-12-02 21:08:00,SystemResetWarning,0822.0,5.00,000.00,019.2,018.5,000.0,027.4,020.4,8.9,0000.0,0000.89,0002.79,0000.50
2023-12-02 21:09:00,SystemResetWarning,0822.0,5.01,000.00,019.2,018.6,000.0,027.5,020.4,9.2,0000.0,0000.89,0002.76,0000.51
2023-12-02 21:10:00,SystemResetWarning,0821.9,5.00,000.00,019.2,018.6,000.0,027.5,020.4,9.1,0000.0,0000.94,0003.07,0000.51
2023-12-02 21:11:00,SystemResetWarning,0821.8,5.00,000.00,019.2,018.6,000.0,027.5,020.5,9.1,0000.0,0001.02,0003.48,0000.51
2023-12-02 21:12:00,SystemResetWarning,0821.8,5.01,000.00,019.2,018.6,000.0,027.5,020.5,9.4,0000.0,0001.04,0003.62,0000.50
2023-12-02 21:13:00,SystemResetWarning,0821.3,5.01,000.00,019.2,018.6,000.0,027.5,020.5,8.8,0000.0,0001.03,0003.36,0000.50
2023-12-02 21:14:00,SystemResetWarning,0821.4,4.99,000.00,019.2,018.6,000.0,027.5,020.5,8.7,0000.0,0000.99,0002.71,0000.50
2023-12-02 21:15:00,SystemResetWarning,0821.7,4.99,000.00,019.2,018.6,000.0,027.5,020.5,8.8,0000.0,0000.99,0002.68,0000.50
2023-12-02 21:16:00,SystemResetWarning,0821.6,4.99,000.00,019.2,018.5,000.0,027.5,020.5,8.9,0000.0,0000.99,0002.61,0000.50
2023-12-02 21:17:00,SystemResetWarning,0821.4,5.00,000.00,019.2,018.5,000.0,027.5,020.4,8.9,0000.0,0001.03,0002.75,0000.51
2023-12-02 21:18:00,SystemResetWarning,0821.6,5.01,000.00,019.2,018.5,000.0,027.5,020.4,8.9,0000.0,0001.04,0002.79,0000.51
2023-12-02 21:19:00,SystemResetWarning,0821.7,5.01,000.00,019.2,018.5,000.0,027.5,020.4,8.6,0000.0,0001.01,0002.69,0000.51
2023-12-02 21:20:00,SystemResetWarning,0822.0,5.00,000.00,019.2,018.5,000.0,027.5,020.4,8.7,0000.0,0000.99,0002.64,0000.51
2023-12-02 21:21:00,SystemResetWarning,0822.0,5.00,000.00,019.2,018.5,000.0,027.5,020.4,8.9,0000.0,0001.00,0002.56,0000.53
2023-12-02 21:22:00,SystemResetWarning,0821.6,5.00,000.00,019.2,018.5,000.0,027.5,020.4,8.7,0000.0,0000.93,0002.12,0000.53
2023-12-02 21:23:00,SystemResetWarning,0821.3,5.00,000.00,019.2,018.5,000.0,027.5,020.4,8.7,0000.0,0000.93,0002.16,0000.54
2023-12-02 21:24:00,SystemResetWarning,0821.3,4.99,000.00,019.2,018.5,000.0,027.5,020.3,8.7,0000.0,0000.93,0002.38,0000.55
2023-12-02 21:25:00,SystemResetWarning,0821.3,5.00,000.00,019.2,018.4,000.0,027.6,020.3,8.7,0000.0,0000.95,0002.53,0000.56
2023-12-02 21:26:00,SystemResetWarning,0821.2,5.00,000.00,019.2,018.4,000.0,027.5,020.3,8.7,0000.0,0000.93,0002.50,0000.55
2023-12-02 21:27:00,SystemResetWarning,0821.2,5.01,000.00,019.2,018.4,000.0,027.5,020.3,8.6,0000.0,0000.91,0002.42,0000.55
2023-12-02 21:28:00,SystemResetWarning,0821.2,5.00,000.00,019.2,018.3,000.0,027.5,020.3,8.7,0000.0,0000.88,0002.93,0000.55
2023-12-02 21:29:00,SystemResetWarning,0821.4,5.00,000.00,019.1,018.3,000.0,027.5,020.2,8.7,0000.0,0000.85,0003.51,0000.56
2023-12-02 21:30:00,SystemResetWarning,0821.5,5.00,000.00,019.1,018.3,000.0,027.5,020.3,8.9,0000.0,0000.83,0003.50,0000.56
2023-12-02 21:31:00,SystemResetWarning,0821.3,5.00,000.00,019.1,018.3,000.0,027.5,020.3,9.1,0000.0,0000.85,0003.58,0000.56
2023-12-02 21:32:00,SystemResetWarning,0821.3,5.00,000.00,019.1,018.3,000.0,027.5,020.3,8.9,0000.0,0000.88,0003.65,0000.57
2023-12-02 21:33:00,SystemResetWarning,0821.3,5.00,000.00,019.1,018.3,000.0,027.5,020.2,8.9,0000.0,0000.89,0003.61,0000.57
2023-12-02 21:34:00,SystemResetWarning,0821.2,5.00,000.00,019.1,018.3,000.0,027.5,020.2,8.8,0000.0,0000.89,0003.52,0000.56
2023-12-02 21:35:00,SystemResetWarning,0821.2,5.00,000.00,019.1,018.3,000.0,027.5,020.3,9.0,0000.0,0000.89,0003.16,0000.57
2023-12-02 21:36:00,SystemResetWarning,0821.1,4.99,000.00,019.1,018.3,000.0,027.5,020.3,9.1,0000.0,0000.90,0003.06,0000.58
2023-12-02 21:37:00,SystemResetWarning,0821.1,4.99,000.00,019.1,018.3,000.0,027.5,020.2,8.9,0000.0,0000.93,0003.22,0000.59
2023-12-02 21:38:00,SystemResetWarning,0821.3,5.01,000.00,019.1,018.3,000.0,027.5,020.2,9.0,0000.0,0000.94,0003.34,0000.59
2023-12-02 21:39:00,SystemResetWarning,0821.2,5.01,000.00,019.1,018.3,000.0,027.5,020.2,8.9,0000.0,0000.96,0003.98,0000.59
2023-12-02 21:40:00,SystemResetWarning,0821.1,5.00,000.00,019.1,018.3,000.0,027.5,020.2,9.0,0000.0,0000.97,0003.14,0000.60
2023-12-02 21:41:00,SystemResetWarning,0821.2,5.00,000.00,019.1,018.3,000.0,027.5,020.2,9.1,0000.0,0000.97,0002.99,0000.60
2023-12-02 21:42:00,SystemResetWarning,0821.2,4.99,000.00,019.1,018.3,000.0,027.5,020.2,9.4,0000.0,0000.96,0002.96,0000.60
2023-12-02 21:43:00,SystemResetWarning,0821.3,4.99,000.00,019.1,018.3,000.0,027.5,020.2,8.9,0000.0,0000.97,0003.00,0000.60
2023-12-02 21:44:00,SystemResetWarning,0821.1,5.00,000.00,019.1,018.3,000.0,027.5,020.2,9.1,0000.0,0000.95,0003.13,0000.59
2023-12-02 21:45:00,SystemResetWarning,0821.3,5.01,000.00,019.1,018.2,000.0,027.5,020.2,9.1,0000.0,0000.93,0003.13,0000.59
2023-12-02 21:46:00,SystemResetWarning,0821.2,5.01,000.00,019.1,018.3,000.0,027.5,020.2,9.0,0000.0,0000.97,0003.59,0000.59
2023-12-02 21:47:00,SystemResetWarning,0821.1,5.01,000.00,019.1,018.2,000.0,027.5,020.2,9.3,0000.0,0000.98,0003.61,0000.59
2023-12-02 21:48:00,SystemResetWarning,0821.1,5.01,000.00,019.1,018.2,000.0,027.5,020.2,9.6,0000.0,0000.98,0003.60,0000.59
2023-12-02 21:49:00,SystemResetWarning,0821.1,4.99,000.00,019.1,018.3,000.0,027.5,020.2,9.5,0000.0,0000.98,0004.23,0000.59
2023-12-02 21:50:00,SystemResetWarning,0821.0,4.99,000.00,019.1,018.3,000.0,027.4,020.2,9.3,0000.0,0001.00,0003.98,0000.60
2023-12-02 21:51:00,SystemResetWarning,0821.0,4.99,000.00,019.1,018.3,000.0,027.4,020.2,9.1,0000.0,0001.04,0003.44,0000.60
2023-12-02 21:52:00,SystemResetWarning,0821.0,5.00,000.00,019.1,018.3,000.0,027.4,020.2,9.0,0000.0,0001.02,0003.38,0000.60
2023-12-02 21:53:00,SystemResetWarning,0821.0,5.00,000.00,019.1,018.3,000.0,027.4,020.2,9.0,0000.0,0001.05,0003.43,0000.59
2023-12-02 21:54:00,SystemResetWarning,0821.1,5.00,000.00,019.1,018.3,000.0,027.4,020.2,9.4,0000.0,0001.05,0003.88,0000.59
2023-12-02 21:55:00,SystemResetWarning,0821.1,5.01,000.00,019.1,018.2,000.0,027.4,020.2,9.5,0000.0,0001.00,0004.03,0000.59
2023-12-02 21:56:00,SystemResetWarning,0821.0,5.01,000.00,019.1,018.2,000.0,027.4,020.2,9.6,0000.0,0001.02,0004.28,0000.58
2023-12-02 21:57:00,SystemResetWarning,0820.9,5.00,000.00,019.1,018.2,000.0,027.4,020.2,9.5,0000.0,0001.00,0004.10,0000.58
2023-12-02 21:58:00,SystemResetWarning,0820.9,5.01,000.00,019.0,018.3,000.0,027.4,020.2,9.1,0000.0,0000.97,0004.04,0000.56
2023-12-02 21:59:00,SystemResetWarning,0821.0,4.99,000.00,019.0,018.2,000.0,027.4,020.2,9.0,0000.0,0000.97,0004.16,0000.56
